Location: St. Louis
(38.6270°N, 90.1994°W)
Time: 10:49:07
(UTC-06:00)

Transit 2A Rocket - Pass Details

Date: 04 December 2021
Orbit: 584 x 918 km, 66.7° (Epoch: 22 January)

Event Time Altitude Azimuth Distance (km) Brightness Sun altitude
Rises 17:26:10 0° 321° (NW) 3,536 8.7 -9.1°
Reaches altitude 10° 17:29:00 10° 311° (NW) 2,565 8.1 -9.6°
Maximum altitude 17:34:06 30° 253° (WSW) 1,484 7.4 -10.6°
Drops below altitude 10° 17:38:54 10° 193° (SSW) 2,397 8.0 -11.4°
Sets 17:41:29 0° 183° (S) 3,269 8.6 -11.9°
